{"data":{"norad_id":66209,"intl_designator":"2025-244D","name":"STARLINK-35750","alt_names":[],"object_type":"PAYLOAD","status":"ACTIVE","operator":null,"country":"US","launch_date":"2025-10-28","launch_site_code":"AFWTR","launch_vehicle":null,"mission":null,"orbit_class":"UNKNOWN","rcs_meters":null,"size_class":null,"mass_kg":null,"dimensions":null,"purposes":["comms"],"wikipedia_slug":null,"has_3d_model":false,"image_url":null,"decayed_at":null,"tle_current":{"epoch":"2026-09-20T13:15:02.506176Z","epoch_age_seconds":92190,"freshness":"FRESH","line1":"1 66209U 25244D   26263.55211234  .00022663  00000+0  67987-3 0  9990","line2":"2 66209  53.1593  41.2634 0002580 140.8805 219.2384 15.34397712 51548","mean_motion":15.34397712,"eccentricity":0.000258,"inclination_deg":53.1593,"raan_deg":41.2634,"arg_perigee_deg":140.8805,"mean_anomaly_deg":219.2384,"bstar":0.00067987,"rev_number":5154,"period_min":93.84789802137,"perigee_km":460.94510209725,"apogee_km":464.47497917021,"semimajor_km":6840.8470406337,"source":"CELESTRAK","updated_at":"2026-09-21T09:00:35.840068Z"}}}